DELTA 1 DEB, 42079

Orbit data source: Space-Track

DELTA 1 DEB, 42079 is space debris in SSO originally from a launch on Sun, 15 Dec 1968 UTC launched from the Air Force Western Test Range (AFWTR). Debris objects in space refer to the collection of defunct objects orbiting the Earth. Examples of debris include non-operational satellites, rocket bodies, and fragments generated from explosions, collisions, or faulty payload assembly.

Loading next visibility...
Identifier
42079, 1968-114F
Orbit
SSO
Country
Flag of USUS
Related business
Manufacturer
Aerojet
Mission
Spacecraft
Bus & Motor
Unknown
Mass
Unknown
Launch date (UTC)
1968-12-15 (57 years ago)
Launch vehicle
Unknown
Launch site
Air Force Western Test Range (AFWTR)
Object type
Payload
Rocket body
Debris
Shape & HBR
Unknown shape, 0.1 m
Radar Cross Section
Small (<0.1 m²)

Expand to show TLE details & history
Last TLE update: 1 day ago

TLE from 1 day ago
0 DELTA 1 DEB
1 42079U 68114F   26036.42087491  .00000066  00000-0  83892-3 0  9999
2 42079 102.0136  11.2008 0317122 318.5598 196.0702 12.26223842546286
Epoch: 2026-02-05T10:06Z
TLE epoch observation values (Epoch: 2026-02-05T10:06:03.592Z)
Latitude
25.74894°
Longitude
-90.02405°
Altitude
1,811.025 km
Speed
6.873 km/s
True Right ascension
13h 08m 15s
True Declination
25° 37' 55"
Sunlit
Object was in daylight at epoch
Visualization orbit readout
Latitude
Unknown
Longitude
Unknown
Altitude
Unknown
Speed
Unknown
Apparent Right ascension
Unknown
Apparent Declination
Unknown
Sunlit
N/A
Visualization observer readout
Local Sidereal Time
13:07:12
Azimuth
Unknown
Elevation
Unknown
Doppler factor
Unknown
Orbital elements
Apogee altitude
1,814.973 km
Perigee altitude
1,311.302 km
Semi-major axis
7,941.275 km
Eccentricity
0.03171
Inclination
102.0136°
RAAN
11.2008°
Arg. of periapsis
318.5598°
True anomaly
195.10128°
Mean anomaly
196.0702°
Eccentric anomaly
195.58213°
Mean motion
3.06696 °/min
Orbital period
117.38 mins
BSTAR
0.00083892
Loading maneuver chart data...
Computing Atmospheric mass density...
Loading historical data...
Loading historical data...
Loading historical data...
Loading historical data...
Loading historical data...
Loading historical data...
Loading historical data...

Documentation

Showing up to 5 results
|